STARLINK-32319, 61528

Orbit data source: Space-Track

STARLINK-32319, 61528 is a payload satellite owned by SpaceX/Seattle (US) in LEO that was launched on Tue, 15 Oct 2024 UTC via an FALCON 9 launch vehicle from the Air Force Eastern Test Range (AFETR). Payload-class satellites include a variety of spacecraft equipped with specific instruments for various scientific and technological missions. These include communications satellites like Starlink; space stations such as the ISS; scientific satellites like the Hubble; Earth observation satellites from companies like Planet Labs, Umbra, and HawkEye 360; GPS; miniature CubeSats for education and research; and military/defense satellites.

Loading next visibility...
Identifier
61528, 2024-183V
Orbit
LEO
Country
Flag of USUS
Related business
Manufacturer
SpaceX/Seattle
Mission
Operational Commercial Communications
Bus & Motor
STARLINK V2M, Unknown motor
Mass
730 kg wet, ~700 kg dry
Launch date (UTC)
2024-10-15 (1 year ago)
Launch vehicle
FALCON 9
Launch site
Air Force Eastern Test Range (AFETR)
Object type
Payload
Rocket body
Debris
Shape & HBR
Box + 2 Pan, 17.7 m
Radar Cross Section
33.884 m², Large (>1 m²)

Expand to show TLE details & history
Last TLE update: 12 hours ago

TLE from 12 hours ago
0 STARLINK-32319
1 61528U 24183V   25346.85924889 -.00001728  00000-0 -46235-4 0  9997
2 61528  53.1594 186.0871 0001442 108.4041 251.7117 15.30190537 66359
Epoch: 2025-12-12T20:37Z
TLE epoch observation values (Epoch: 2025-12-12T20:37:19.104Z)
Latitude
0.00003°
Longitude
154.96269°
Altitude
476.453 km
Speed
7.629 km/s
True Right ascension
12h 24m 20s
True Declination
0° 00' 00"
Sunlit
Object was in daylight at epoch
Visualization orbit readout
Latitude
Unknown
Longitude
Unknown
Altitude
Unknown
Speed
Unknown
Apparent Right ascension
Unknown
Apparent Declination
Unknown
Sunlit
N/A
Visualization observer readout
Local Sidereal Time
07:27:31
Azimuth
Unknown
Elevation
Unknown
Doppler factor
Unknown
Orbital elements
Apogee altitude
476.488 km
Perigee altitude
474.512 km
Semi-major axis
6,853.637 km
Eccentricity
0.00014
Inclination
53.1594°
RAAN
186.0871°
Arg. of periapsis
108.4041°
True anomaly
251.69601°
Mean anomaly
251.7117°
Eccentric anomaly
251.70386°
Mean motion
3.82527 °/min
Orbital period
94.11 mins
BSTAR
-0.000046235
Loading maneuver chart data...
Computing Atmospheric mass density...
Loading historical data...
Loading historical data...
Loading historical data...
Loading historical data...
Loading historical data...
Loading historical data...
Loading historical data...

Documentation

Showing up to 5 results
|